Weather reports worldwide

Advertisment
Annecy-Meythet, France (7490): temperature & dewpoint: 06.12.2018 00:00:00 - 12.12.2018 00:00:00 (CET)Annecy-Meythet, France (7490): temperature 5cm: 06.12.2018 00:00:00 - 12.12.2018 00:00:00 (CET)Annecy-Meythet, France (7490): temperature -20cm & temperature -100cm: 06.12.2018 00:00:00 - 12.12.2018 00:00:00 (CET)Annecy-Meythet, France (7490): wind speed & gusts: 06.12.2018 00:00:00 - 12.12.2018 00:00:00 (CET)Annecy-Meythet, France (7490): wind direction: 06.12.2018 00:00:00 - 12.12.2018 00:00:00 (CET)Annecy-Meythet, France (7490): reduced air pressure: 06.12.2018 00:00:00 - 12.12.2018 00:00:00 (CET)Annecy-Meythet, France (7490): visibility: 06.12.2018 00:00:00 - 12.12.2018 00:00:00 (CET)Annecy-Meythet, France (7490): precipitation: 06.12.2018 00:00:00 - 12.12.2018 00:00:00 (CET)
Date & Time tt [°C] td [°C] tt 5cm [°C] tt -20cm [°C] tt -100cm [°C] ff [km/h] ff [kn] fx [km/h] fx [kn] dd ppp [hPa] vv [km] rr [mm]
12.12.2018 00:00:00 -1,5 -2,2 -2,6 4,7 10,3 4 2 6 4 N 1024,7 10 0,0
11.12.2018 23:00:00 -1,1 -2,2 -2,4 4,9 10,3 3 2 8 5 NE 1024,4 13 0,0
11.12.2018 22:00:00 -0,7 -2,0 -2,1 5,1 10,3 3 1 9 5 N 1024,4 15 0,0
11.12.2018 21:00:00 0,1 -1,5 -1,4 5,4 10,3 4 2 12 7 ENE 1024,1 9 0,0
11.12.2018 20:00:00 1,3 -1,4 -1,1 5,6 10,3 6 3 13 7 ENE 1023,8 47 0,0
11.12.2018 19:00:00 1,8 -0,8 0,0 5,8 10,3 10 5 16 9 NE 1023,5 37 0,0
11.12.2018 18:00:00 2,8 -0,1 1,0 6,0 10,3 9 5 12 7 NE 1023,4 57 0,0
11.12.2018 17:00:00 4,5 -0,5 3,1 6,1 10,3 9 5 19 10 N 1023,3 60 0,0
11.12.2018 16:00:00 5,8 -0,9 6,1 6,1 10,3 9 5 21 11 N 1023,0 55 0,0
11.12.2018 15:00:00 6,8 0,2 8,8 6,0 10,3 13 7 23 13 N 1022,8 60 0,0
11.12.2018 14:00:00 6,8 1,5 9,0 5,7 10,3 14 8 29 16 NNE 1023,0 60 0,0
11.12.2018 13:00:00 6,4 1,5 7,2 5,5 10,3 19 10 29 16 NE 1023,6 60 0,0
11.12.2018 12:00:00 5,4 0,9 5,2 5,4 10,3 16 8 26 14 NE 1024,1 59 0,0
11.12.2018 11:00:00 4,5 2,2 5,6 5,3 10,3 4 2 8 4 NW 1025,0 42 0,0
11.12.2018 10:00:00 3,8 2,3 1,8 5,4 10,3 0 0 8 5 N 1025,3 19 0,0
11.12.2018 09:00:00 0,8 0,5 -1,8 5,6 10,3 7 4 12 6 NNW 1026,3 12 0,0
11.12.2018 08:00:00 0,0 -0,3 -1,4 5,8 10,3 2 1 10 5 NNW 1026,4 0,3 0,0
11.12.2018 07:00:00 0,7 0,4 -0,8 6,0 10,3 4 2 6 3 SW 1026,5 1,2 0,0
11.12.2018 06:00:00 1,7 1,3 0,1 6,2 10,3 3 1 7 4 NW 1026,6 4,2 0,0
11.12.2018 05:00:00 2,7 2,3 1,9 6,2 10,3 3 1 6 3 NNW 1026,6 10 0,0
11.12.2018 04:00:00 2,7 2,3 2,1 6,4 10,3 2 1 7 4 ENE 1026,9 15 0,0
11.12.2018 03:00:00 2,8 2,4 2,3 6,4 10,3 3 2 6 3 NW 1027,2 12 0,0
11.12.2018 02:00:00 3,2 2,8 2,3 6,6 10,3 0 0 6 3 N 1027,3 12 0,0
11.12.2018 01:00:00 3,6 3,2 2,9 6,6 10,3 6 3 7 4 NNW 1027,6 7 0,0
11.12.2018 00:00:00 4,0 3,6 3,5 6,7 10,3 0 0 6 3 N 1028,0 6 0,2
10.12.2018 23:00:00 4,2 3,8 3,9 6,8 10,3 0 0 4 2 N 1027,9 7 0,0
10.12.2018 22:00:00 4,4 3,8 4,0 6,8 10,3 0 0 5 3 N 1028,0 13 0,0
10.12.2018 21:00:00 4,6 3,9 4,0 6,9 10,3 4 2 6 3 WNW 1028,5 16 0,0
10.12.2018 20:00:00 4,5 3,8 3,7 7,0 10,3 4 2 7 4 W 1028,6 19 0,0
10.12.2018 19:00:00 4,4 3,5 3,5 7,1 10,3 2 1 11 6 NNE 1028,5 40 0,0
10.12.2018 18:00:00 5,2 3,4 4,4 7,2 10,3 7 4 26 14 WNW 1028,3 17 1,4
10.12.2018 17:00:00 6,0 3,7 5,4 7,2 10,3 6 3 13 7 W 1027,9 37 0,0
10.12.2018 16:00:00 6,3 4,0 5,7 7,1 10,3 9 5 18 10 SW 1027,7 60 0,2
10.12.2018 15:00:00 6,5 3,6 6,6 7,0 10,3 9 5 19 10 SW 1027,6 60 0,0
10.12.2018 14:00:00 6,2 3,7 5,8 6,9 10,3 12 7 19 11 SSW 1027,8 60 0,0
10.12.2018 13:00:00 6,2 3,5 5,5 6,8 10,3 12 6 31 17 WNW 1028,2 18 0,2
10.12.2018 12:00:00 6,7 2,8 5,5 6,8 10,3 15 8 26 14 W 1028,0 60 0,2
10.12.2018 11:00:00 6,0 3,5 5,6 6,7 10,3 9 5 15 8 WSW 1028,4 60 0,0
10.12.2018 10:00:00 5,4 4,0 4,9 6,7 10,3 5 3 10 6 WSW 1028,3 50 0,0
10.12.2018 09:00:00 5,1 4,2 4,5 6,7 10,3 0 0 10 5 N 1028,1 18 0,2
10.12.2018 08:00:00 5,1 3,9 4,3 6,8 10,3 7 4 19 11 WNW 1027,4 60 0,0
10.12.2018 07:00:00 4,9 3,9 4,3 6,8 10,4 3 2 16 9 WSW 1026,9 19 0,4
10.12.2018 06:00:00 4,7 3,5 3,3 6,9 10,4 8 4 13 7 WNW 1026,8 55 0,0
10.12.2018 05:00:00 5,0 3,7 3,7 7,0 10,4 6 4 16 8 W 1026,2 18 0,2
10.12.2018 04:00:00 5,4 4,7 4,6 7,0 10,4 7 4 13 7 N 1026,2 5 0,8
10.12.2018 03:00:00 5,7 4,3 4,8 7,1 10,4 4 2 22 12 SSE 1025,7 60 0,0
10.12.2018 02:00:00 6,1 4,7 5,2 7,1 10,4 14 7 37 20 SW 1024,6 60 0,4
10.12.2018 01:00:00 6,6 4,3 5,4 7,2 10,4 12 7 23 13 W 1024,3 13 1,2
10.12.2018 00:00:00 6,9 4,7 5,9 7,2 10,4 12 7 22 12 SSW 1023,8 58 0,0
09.12.2018 23:00:00 6,9 4,7 5,8 7,2 10,4 15 8 29 15 SSW 1023,3 60 0,2
09.12.2018 22:00:00 7,0 4,6 5,8 7,2 10,4 14 7 28 15 S 1022,3 60 0,0
09.12.2018 21:00:00 6,1 5,4 5,7 7,3 10,4 4 2 11 6 ENE 1022,6 9 1,0
09.12.2018 20:00:00 6,0 5,3 5,6 7,3 10,4 6 3 15 8 NNE 1021,6 6 2,4
09.12.2018 19:00:00 6,1 4,9 5,5 7,4 10,4 11 6 22 12 SW 1021,0 6 0,8
09.12.2018 18:00:00 6,0 4,8 5,5 7,5 10,4 10 5 21 11 SSW 1020,8 5 0,6
09.12.2018 17:00:00 6,5 4,3 5,7 7,5 10,4 10 5 27 15 SSW 1020,3 56 0,6
09.12.2018 16:00:00 6,8 4,3 5,7 7,5 10,4 10 6 23 12 SW 1019,8 11 0,8
09.12.2018 15:00:00 7,9 4,1 6,8 7,4 10,4 13 7 25 14 SSW 1018,9 17 0,0
09.12.2018 14:00:00 7,9 4,8 6,2 7,3 10,4 11 6 23 12 S 1019,1 60 0,0
09.12.2018 13:00:00 6,9 4,4 6,3 7,2 10,4 4 2 14 8 S 1020,0 6 0,8
09.12.2018 12:00:00 7,9 4,5 7,0 7,1 10,4 8 4 28 15 SSW 1020,0 60 0,0
09.12.2018 11:00:00 8,6 4,0 6,6 7,1 10,4 11 6 29 16 W 1019,6 55 0,6
09.12.2018 10:00:00 7,5 5,5 6,2 7,0 10,4 9 5 34 18 WSW 1017,8 15 1,0
09.12.2018 09:00:00 7,4 5,4 5,9 7,0 10,4 6 3 24 13 SW 1018,4 14 0,4
09.12.2018 08:00:00 8,5 4,7 6,4 7,0 10,4 13 7 42 23 W 1018,4 5 0,8
09.12.2018 07:00:00 8,5 5,8 6,9 7,0 10,4 11 6 34 19 WSW 1017,5 6 1,0
09.12.2018 06:00:00 8,9 5,8 7,0 6,9 10,4 22 12 39 21 WSW 1017,5 13 0,6
09.12.2018 05:00:00 9,0 5,6 5,8 6,9 10,4 14 7 22 12 W 1017,1 19 0,2
09.12.2018 04:00:00 6,5 5,0 5,6 6,9 10,4 4 2 12 6 NW 1017,1 56 0,0
09.12.2018 03:00:00 6,0 4,8 5,5 6,9 10,4 5 3 13 7 NNW 1018,5 60 0,0
09.12.2018 02:00:00 5,7 4,8 5,4 6,9 10,4 4 2 14 8 NE 1019,6 20 0,0
09.12.2018 01:00:00 6,6 4,6 5,3 6,9 10,4 6 3 29 16 SSE 1020,0 60 0,0
09.12.2018 00:00:00 5,9 4,4 5,1 6,9 10,4 10 6 28 15 SSE 1021,0 16 1,0
08.12.2018 23:00:00 5,8 4,3 5,0 7,0 10,4 16 9 38 20 SSE 1021,4 12 0,4
08.12.2018 22:00:00 5,6 4,1 4,8 7,0 10,4 15 8 29 15 SSE 1021,8 58 0,4
08.12.2018 21:00:00 5,4 4,2 4,8 7,1 10,4 6 4 34 19 S 1022,6 6 0,0
08.12.2018 20:00:00 5,6 3,4 4,6 7,1 10,4 13 7 31 17 SSE 1022,8 60 0,2
08.12.2018 19:00:00 5,6 3,3 4,5 7,2 10,4 20 11 36 19 SSE 1023,3 38 0,0
08.12.2018 18:00:00 5,2 3,5 4,5 7,2 10,4 13 7 23 13 SE 1023,9 19 0,2
08.12.2018 17:00:00 5,3 3,3 4,6 7,3 10,4 10 5 23 12 SSE 1024,4 59 0,2
08.12.2018 16:00:00 5,4 3,7 4,7 7,4 10,4 13 7 25 14 SSE 1024,9 18 0,6
08.12.2018 15:00:00 5,5 3,2 4,9 7,3 10,4 14 8 26 14 SSE 1024,6 20 0,2
08.12.2018 14:00:00 5,8 3,1 5,2 7,3 10,4 10 6 24 13 SSE 1025,0 20 0,0
08.12.2018 13:00:00 6,0 3,0 5,5 7,2 10,4 11 6 26 14 S 1025,5 12 0,2
08.12.2018 12:00:00 5,8 3,1 4,9 7,2 10,4 12 6 22 12 SE 1025,1 60 0,0
08.12.2018 11:00:00 5,6 3,3 5,1 7,2 10,4 7 4 13 7 ESE 1025,4 34 0,2
08.12.2018 10:00:00 5,5 3,5 4,4 7,2 10,4 4 2 14 8 WSW 1025,5 53 0,0
08.12.2018 09:00:00 4,9 3,1 4,0 7,3 10,4 3 2 10 6 NE 1025,3 57 0,0
08.12.2018 08:00:00 4,6 3,4 4,0 7,4 10,4 4 2 14 8 N 1025,0 51 0,0
08.12.2018 07:00:00 4,6 3,6 3,9 7,5 10,4 2 1 11 6 W 1024,7 51 0,0
08.12.2018 06:00:00 4,4 3,7 3,9 7,6 10,4 8 4 12 6 ENE 1023,8 48 0,0
08.12.2018 05:00:00 4,4 3,5 3,3 7,7 10,4 5 3 7 4 NE 1024,1 52 0,2
08.12.2018 04:00:00 4,9 3,2 4,0 7,8 10,4 4 2 11 6 SE 1024,0 60 0,0
08.12.2018 03:00:00 5,2 4,0 4,7 7,9 10,4 3 2 8 4 WNW 1023,4 56 0,0
08.12.2018 02:00:00 5,5 3,5 4,9 8,1 10,4 4 2 13 7 NNE 1023,3 55 0,0
08.12.2018 01:00:00 5,8 3,0 4,5 8,2 10,4 10 5 37 20 SSE 1023,2 60 0,0
08.12.2018 00:00:00 6,4 2,8 5,1 8,4 10,4 16 9 61 33 WSW 1022,5 60 1,0
07.12.2018 23:00:00 8,3 4,1 7,2 8,5 10,4 19 10 34 19 WSW 1020,4 60 0,0
07.12.2018 22:00:00 8,4 5,9 7,1 8,6 10,4 14 8 45 24 SW 1019,2 55 0,2
07.12.2018 21:00:00 9,9 7,5 8,7 8,6 10,4 13 7 21 11 W 1018,1 10 1,2
07.12.2018 20:00:00 10,2 7,6 8,8 8,6 10,4 9 5 24 13 S 1017,3 60 1,6
07.12.2018 19:00:00 10,3 7,9 8,9 8,6 10,4 6 4 21 11 S 1017,0 40 0,4
07.12.2018 18:00:00 11,6 6,9 10,1 8,7 10,4 11 6 29 16 SSW 1016,7 33 0,0
07.12.2018 17:00:00 11,5 6,8 10,7 8,6 10,4 13 7 34 18 SSW 1016,0 60 0,0
07.12.2018 16:00:00 12,5 7,2 12,4 8,5 10,4 11 6 26 14 SW 1015,8 60 0,0
07.12.2018 15:00:00 12,7 7,2 11,7 8,4 10,4 14 7 28 15 SW 1016,6 60 0,0
07.12.2018 14:00:00 12,4 7,3 13,5 8,1 10,4 15 8 28 15 SSW 1018,0 60 0,0
07.12.2018 13:00:00 12,1 7,0 11,5 7,8 10,4 15 8 24 13 SSW 1019,1 39 0,0
07.12.2018 12:00:00 10,4 6,7 11,5 7,5 10,4 14 8 26 14 SW 1020,8 58 0,0
07.12.2018 11:00:00 10,5 6,3 12,2 7,4 10,4 3 2 8 5 SSW 1020,8 39 0,0
07.12.2018 10:00:00 8,0 5,8 7,6 7,4 10,4 4 2 9 5 NE 1022,1 31 0,0
07.12.2018 09:00:00 7,5 5,6 6,4 7,3 10,4 6 3 14 8 NNE 1023,2 60 0,0
07.12.2018 08:00:00 6,4 5,7 6,3 7,3 10,4 3 2 8 4 NE 1024,0 34 0,0
07.12.2018 07:00:00 6,6 5,7 6,4 7,3 10,4 5 3 8 4 SSE 1024,4 29 0,0
07.12.2018 06:00:00 6,5 5,8 6,0 7,3 10,4 5 3 10 5 NE 1024,1 20 0,0
07.12.2018 05:00:00 6,0 5,3 5,9 7,3 10,4 5 3 9 5 NE 1024,8 20 0,0
07.12.2018 04:00:00 6,0 5,4 5,9 7,4 10,4 6 4 12 7 E 1025,2 15 0,0
07.12.2018 03:00:00 6,0 5,4 5,3 7,4 10,4 5 3 14 8 ENE 1025,9 16 0,0
07.12.2018 02:00:00 6,1 5,5 5,2 7,5 10,4 11 6 16 9 NE 1026,4 19 0,0
07.12.2018 01:00:00 6,1 5,5 5,7 7,5 10,4 7 4 13 7 NE 1027,3 14 0,0
07.12.2018 00:00:00 6,0 5,4 5,4 7,6 10,4 6 3 11 6 N 1027,3 14 0,0
06.12.2018 23:00:00 5,7 5,1 5,3 7,8 10,5 5 3 8 4 ENE 1027,5 18 0,0
06.12.2018 22:00:00 6,0 5,4 5,2 7,9 10,4 5 3 13 7 NE 1027,7 15 0,0
06.12.2018 21:00:00 5,8 5,2 4,8 8,1 10,4 9 5 17 9 NE 1027,7 16 0,0
06.12.2018 20:00:00 5,9 5,0 4,9 8,3 10,4 8 4 12 6 NNE 1027,8 16 0,0
06.12.2018 19:00:00 6,8 5,9 5,1 8,5 10,4 4 2 10 5 NNE 1027,0 15 0,0
06.12.2018 18:00:00 7,8 6,7 5,9 8,6 10,5 6 3 9 5 NW 1026,0 34 0,0
06.12.2018 17:00:00 9,3 7,4 8,4 8,7 10,5 4 2 14 8 NNW 1025,3 59 0,0
06.12.2018 16:00:00 11,2 7,1 12,0 8,5 10,4 5 3 6 4 ENE 1024,6 60 0,0
06.12.2018 15:00:00 11,3 6,2 12,1 8,2 10,4 2 1 9 5 SE 1024,6 60 0,0
06.12.2018 14:00:00 11,5 6,4 13,6 7,9 10,5 4 2 9 5 E 1024,5 60 0,0
06.12.2018 13:00:00 10,8 7,7 10,7 7,6 10,4 2 1 12 7 ESE 1025,0 60 0,0
06.12.2018 12:00:00 10,1 7,2 9,2 7,4 10,4 7 4 20 11 S 1025,1 60 0,0
06.12.2018 11:00:00 9,5 7,1 8,6 7,2 10,4 12 7 26 14 SSE 1025,2 60 0,2
06.12.2018 10:00:00 8,8 7,6 7,7 7,1 10,5 10 5 26 14 S 1024,8 17 1,4
06.12.2018 09:00:00 8,1 7,3 7,2 7,1 10,5 5 3 23 12 SE 1024,4 11 2,4
06.12.2018 08:00:00 7,8 7,4 7,3 7,0 10,5 5 3 15 8 E 1023,5 8 4,0
06.12.2018 07:00:00 7,6 7,2 7,0 7,0 10,5 5 3 14 8 NE 1023,2 4,7 2,4
06.12.2018 06:00:00 7,8 7,0 6,4 6,9 10,5 9 5 16 9 NE 1022,6 7 0,4
06.12.2018 05:00:00 6,7 6,3 6,3 6,9 10,5 4 2 10 5 N 1023,1 11 0,8
06.12.2018 04:00:00 6,9 6,0 5,3 6,9 10,5 4 2 16 9 NE 1023,3 18 0,2
06.12.2018 03:00:00 5,9 5,3 5,5 6,9 10,4 11 6 16 9 ESE 1023,7 5 1,6
06.12.2018 02:00:00 5,7 5,1 5,0 7,0 10,5 3 2 10 5 NNW 1023,8 7 0,6
06.12.2018 01:00:00 5,1 4,5 4,0 7,0 10,5 6 4 12 6 NNW 1024,4 17 0,0
06.12.2018 00:00:00 5,3 4,6 4,2 7,1 10,5 2 1 16 9 W 1023,5 17 0,0

tt = temperature
td = dewpoint
tt 5cm = temperature 5cm
tt -20cm = temperature -20cm
tt -100cm = temperature -100cm
ff = wind speed
fx = gusts
dd = wind direction
ppp = reduced air pressure
vv = visibility
rr = precipitation

Next stations